Погода в Дукстасе

Поиск расширенной информации на нашем сайте:

Полезная информация:

Новости сайта



02.01.2020
Опубликован Долгосрочный прогноз погоды по городам России и ближнего зарубежья на январь 2020 года.
Карты: Прогноз на январь и февраль 2020 года, Сравнение прогнозируемой аномалии приземной температуры воздуха на январь 2020 года по разным моделям.




Погода в Дукстасе - сегодня

Время (UTC), дата Ветер
(°,м/с) 
Видим.   Явления Облачность Т
(°С)
Тd
(°С)
f(%) Тe
(°С)
Pmin
(гПа)
dP
(гПа)
Po
(мм)
O2
(г/м3)
Тmin Tmax R s Состояние
почвы
06 01.06.20 020 (С) 5-10{12}  20000 м    ясно 
+10.1 -0.1 49 +9  1020.7  0.1  751  292  +6.6         
09 01.06.20 020 (С) 5-10{13}  19000 м    3/0 
+13.2 -0.5 39 +12  1020.1  -0.4  750  288           
12 01.06.20 350 (С) 5-11{13}  20000 м    8/0 
+15.1 +0.9 38 +15  1018.4  -1.5  749  286           
15 01.06.20 020 (С) 4-8{11}  20000 м    5/0 
+15.2 +0.6 37 +15  1017.4  -1  749  286           
18 01.06.20 010 (С) 3-5{08}  20000 м    ясно 
+12.4 +1.4 47 +12  1017.3  -0.3  748  288    +16.7       
21 01.06.20 010 (С) 3-6{06}  20000 м    ясно 
+9.3 +2.5 62 +9  1017.8  0.3  749  291           
00 02.06.20 000 (С) 3-6{07}  20000 м    ясно 
+7.6 +2.2 69 +7  1016.6  -1.3  748  293           
03 02.06.20 010 (С) 4-7{08}  20000 м    ясно 
+7.4 +2.7 72 +6  1015.6  -1  747  293           
06 02.06.20 010 (С) 4-8{10}  20000 м    ясно 
+12.3 +4.3 58 +12  1014.5  -0.7  746  287  +6.4         
09 02.06.20 020 (С) 6-11{13}  20000 м    4/0 
+15.9 +2.2 40 +15  1012.8  -1.4  745  283           
12 02.06.20 040 (СВ) 6-11{13}  20000 м    9/9 1500 м 
+16.1 +2 39 +16  1011.8  -1  745  283           
15 02.06.20 040 (СВ) 3-8{12}  20000 м    9/9 1500 м 
+15.1 +2.5 43 +15  1011.2  -0.7  744  284           
18 02.06.20 050 (СВ) 4-7{11}  20000 м  слаб. ливневой дождь  10/10 1500 м 
+11 +6 71 +10  1011.7  0.2  744  287    +17.3  0.0     
21 02.06.20 050 (СВ) 4-8{10}  20000 м  в посл. час дождь  10/10 600 м 
+10.8 +6 72 +10  1011  -0.7  744  287      0.0     
00 03.06.20 070 (В) 2-4{09}  20000 м  слаб. ливневой дождь  10/10 300 м 
+9.4 +7.2 86 +9  1010  -1  743  288      0.0     
03 03.06.20 060 (СВ) 3-5{07}  7000 м  слаб. ливневой дождь  10/10 100 м 
+8.8 +7.6 92 +8  1009.5  -0.6  742  288      0.3     
06 03.06.20 060 (СВ) 2-5{06}  19000 м    10/10 300 м 
+9.6 +7.9 89 +10  1009.2  -0.2  742  288  +8.7    0.5     
09 03.06.20 060 (СВ) 3-6{07}  20000 м    9/9 600 м 
+11.4 +7.7 78 +11  1009.5  0.4  743  286      0.2     
12 03.06.20 060 (СВ) 4-7{07}  20000 м    8/0 
+14 +8 67 +14  1008.2  -1.1  742  283           
15 03.06.20 030 (СВ) 5-8{09}  20000 м    3/0 
+15.6 +7.1 57 +15  1006.8  -1.3  741  281           
18 03.06.20 020 (С) 2-4{08}  20000 м    9/9 1500 м 
+13.6 +7.8 68 +14  1006.4  -0.5  740  283    +16.2       
21 03.06.20 050 (СВ) 3-5{08}  20000 м  в посл. час дождь  9/0 2000 м 
+9.8 +8.9 94 +9  1006.7  0.1  740  286      16     
00 04.06.20 тихо () -2{05}  16000 м  слаб. дождь  9/0 
+9.9 +9.1 95 +10  1005.3  -1.4  739  286      17     
03 04.06.20 тихо () -4{05}  9000 м  дымка  9/9 100 м 
+9.2 +8.5 95 +9  1004.4  -0.9  739  286      0.7     
06 04.06.20 090 (В) 2-4{06}  9000 м  дымка  10/10 100 м 
+10.4 +9.4 94 +12  1003.4  -0.9  738  285  +8.9    17     
Время (UTC), дата Ветер
(°,м/с) 
Видим.   Явления Облачность Т
(°С)
Тd
(°С)
f(%) Тe
(°С)
Pmin
(гПа)
dP
(гПа)
Po
(мм)
O2
(г/м3)
Тmin Tmax R s Состояние
почвы

Для получения пояснительной информации подведите курсор к названию столбца.

ПОГОДА в Дукстасе - архив

Всё, что Вы хотите узнать о погоде в Дукстасе - удобно и подробно!

Выберите нужную дату (начиная с 1 января 2019* года) и нажмите кнопку "Найти".
Будут отображены архивные сводки погоды по пункту Дукстас, начиная с указанной даты.


Отображать данные в формате CSV (для использования в таблицах Excel)


Внимание! Наш архив погоды предназначен исключительно для личного некоммерческого использования в познавательных целях. Если Вам необходимы официальные справки о состоянии погоды (для производственных, юридических, коммерческих и т.п. целей), обращайтесь в органы Росгидромета.

*Примечание: данная дата относится к архиву по метеостанциям СССР (Россия, СНГ, Балтия).
Архив по метеостанциям Зарубежной Европы и Азии (кроме Китая) хранится 10 дней, по другим регионам земного шара (Китай, Африка, Америка, Австралия, Океания) - 1 день.

Дукстас - район местоположения метеостанции


Название, широта, долгота, высота метеостанции:
Дукстас 55.5°ш. 26.3°д. 168 м над ур. моря [Литва]

Дополнительная информация

В oтличие oт бoльшинства пoгoдных сайтoв мы публикуем пoдрoбную метеoинфoрмацию в детальнoм прoфессиoнальнoм фoрмате.

Характеристики температуры и влажнoсти вoздуха измеряются на высoте 2 м в тени вдали oт зданий и деревьев.
Скoрoсть ветра измеряется на высoте 10 м (на урoвне рoста челoвека скoрoсть ветра ниже в 1.5-2 раза). Если метеoстанция нахoдится в гoрoде или в лесу, тo скoрoсть ветра занижена на 2-4 м/с пo сравнению с oткрытым местoм. Скoрoсть ветра над акватoриями крупных рек и oзёр, а также на вершинах хoлмoв на 2-5 м/с выше, чем в oбычных услoвиях.
Атмoсфернoе давление в разных тoчках местнoсти мoжет значительнo oтличаться oт давления на метеoстанции, в зависимoсти oт услoвий рельефа (при пoдъёме на 10 м давление пoнижается примернo на 1 мм рт.ст.).